Location: Highridge
(54.0333°N, 114.1333°W)
Time: 19:26:19
(UTC+00:00)

Oscar 19 - Pass Details

Date: 01 December 2023
Orbit: 771 x 789 km, 98.9° (Epoch: 04 March)

Event Time Altitude Azimuth Distance (km) Brightness Sun altitude
Rises 10:50:08 0° 28° (NNE) 3,270 14.4 -40.0°
Reaches altitude 10° 10:53:42 10° 54° (NE) 2,340 13.7 -39.5°
Maximum altitude 10:56:18 14° 85° (E) 2,080 13.4 -39.1°
Drops below altitude 10° 10:58:54 10° 115° (ESE) 2,337 13.5 -38.8°
Sets 11:02:26 0° 141° (SE) 3,263 14.1 -38.3°
